Location: ČR
(50.0000°N, 15.0000°E)
Time: 15:23:42
(UTC+00:00)

Transit 2A - Visible Passes

Search period start: 25 October 2021 00:00
Search period end: 04 November 2021 00:00
Orbit: 593 x 965 km, 66.7° (Epoch: 24 October)

Date Brightness Start Highest point End Pass type
(mag) Time Alt. Az. Time Alt. Az. Time Alt. Az.
25 Oct 6.5 16:25:48 10° NNW 16:32:01 63° NE 16:38:21 10° SE visible
25 Oct 8.0 18:09:28 10° NW 18:15:03 34° WSW 18:20:39 10° S visible
26 Oct 7.6 17:35:01 10° NW 17:40:59 45° WSW 17:46:58 10° S visible
27 Oct 7.1 17:00:40 10° NW 17:06:52 59° WSW 17:13:06 10° SSE visible
27 Oct 9.3 18:46:31 10° WNW 18:48:57 12° W 18:51:23 10° WSW visible
28 Oct 6.7 16:26:23 10° NW 16:32:41 77° WSW 16:39:03 10° SSE visible
28 Oct 9.1 18:11:05 10° WNW 18:15:04 18° WSW 18:19:03 10° SW visible
29 Oct 8.8 17:36:14 10° WNW 17:41:08 24° WSW 17:46:01 10° SSW visible
30 Oct 8.4 17:01:38 10° NW 17:07:08 32° WSW 17:12:38 10° S visible
31 Oct 7.9 16:27:10 10° NW 16:33:06 43° WSW 16:39:00 10° S visible
01 Nov 9.7 17:39:04 10° W 17:41:00 11° W 17:42:57 10° WSW visible
02 Nov 9.5 17:03:22 10° WNW 17:07:08 16° WSW 17:10:52 10° SW visible
03 Nov 9.2 16:28:27 10° WNW 16:33:12 23° WSW 16:37:56 10° SSW visible
